Temperature
12 12 12 12 12 12 12 12 12 12 12 12 11 11 11 11 11 11 11 11 11 11 10 10 10 10 10 10 10 10 10 10 10 10 10 10 10 9 9 9 9 9 9
12 12 12 12 12 12 12 12 12 11 11 11 11 11 11 11 11 11 11 10 10 10 10 10 10 10 10 9 9 9 9 9 9 9 9 9 9 9 9 9 9 9 9
11 11 11 11 11 11 11 11 11 11 11 11 11 11 11 10 10 10 10 10 10 10 10 10 10 9 9 9 9 9 9 9 9 9 9 9 9 9 9 9 9 9 9
10 10 11 11 11 11 11 11 11 11 10 10 10 10 10 10 10 10 10 10 10 10 10 9 9 9 9 9 9 9 8 8 8 8 8 8 8 8 8 8 8 8 8
10 10 10 10 10 10 10 10 10 10 10 10 10 10 10 10 10 10 10 10 9 9 9 9 9 9 9 9 8 8 8 8 8 8 8 8 8 8 8 8 8 8 8
9 9 9 9 9 9 9 9 9 9 9 9 9 9 9 9 9 9 9 9 9 9 9 9 9 9 8 8 8 8 8 8 7 7 7 7 7 7 7 7 7 7 8
9 9 9 9 9 9 9 9 9 9 9 9 9 9 9 9 9 9 9 9 9 8 8 8 8 8 8 8 8 8 7 7 7 7 7 7 7 7 7 7 7 7 7
8 8 8 8 8 8 8 8 8 8 8 8 8 8 7 8 8 8 8 8 8 8 8 8 8 8 7 7 7 7 7 7 7 7 7 6 7 7 7 7 7 7 7
7 7 7 7 8 7 7 7 8 8 7 7 7 7 7 7 7 7 8 8 8 7 7 7 7 7 7 7 7 7 7 7 6 6 6 6 6 6 6 6 6 6 6
6 6 7 7 7 7 7 7 7 7 7 7 7 6 6 6 6 7 7 7 7 7 7 7 7 7 7 6 6 6 6 6 6 6 6 6 5 6 6 5 6 6 6
6 6 6 6 6 6 6 6 6 6 6 6 6 6 6 6 6 6 6 6 7 7 6 6 6 6 6 6 6 6 6 6 5 5 5 5 5 5 5 5 5 5 5
5 5 5 5 5 5 5 6 5 6 6 6 6 5 5 5 5 5 5 5 6 6 6 6 6 6 6 5 5 5 5 5 5 5 5 5 5 5 5 5 5 5 5
4 4 4 5 5 5 5 5 5 5 5 5 5 5 5 5 5 5 5 4 4 5 5 5 5 5 5 5 5 5 5 4 4 4 4 4 4 4 4 4 4 4 4
4 4 4 4 4 4 4 4 4 4 5 5 4 4 4 4 4 4 4 4 3 3 4 4 4 4 4 4 4 4 4 4 4 4 4 4 4 4 4 4 4 4 4
3 3 3 3 3 3 4 3 4 4 4 4 4 4 4 4 4 4 3 3 3 2 2 3 3 4 3 3 3 3 3 3 3 3 3 3 3 3 3 3 3 3 3
2 2 3 3 3 3 3 3 3 3 3 3 3 3 3 3 3 3 3 3 2 2 2 2 3 3 3 3 3 3 3 3 3 3 3 3 3 3 3 3 3 2 2
2 2 2 2 2 2 2 3 3 3 3 3 3 3 3 2 2 2 2 2 2 2 1 2 2 2 2 2 2 2 2 2 2 2 2 2 2 2 2 2 2 2 2
2 2 2 2 2 2 2 2 2 2 2 2 2 2 2 2 2 2 2 2 2 1 1 1 2 2 1 1 2 1 1 1 1 1 1 1 1 1 1 1 1 1 2
1 1 1 1 1 1 1 2 2 2 2 2 2 2 1 1 1 1 1 1 1 1 1 1 1 1 1 1 1 1 1 1 1 1 1 1 1 1 1 1 1 1 1
0 0 1 1 1 1 1 1 1 1 1 1 1 1 1 1 1 1 1 1 1 1 1 1 1 1 1 1 0 0 0 1 1 1 1 1 1 1 1 1 1 1 1
0 0 0 0 0 0 0 0 0 0 0 0 1 0 0 0 0 0 0 0 0 0 0 0 0 0 0 -0 -0 -0 -0 -0 0 0 0 0 0 1 1 1 0 1 1
-0 -0 -0 -0 -0 -0 -0 -0 -1 -0 -0 -0 -0 0 0 0 0 0 0 0 0 0 0 -0 -0 -0 -0 -0 -1 -1 -1 -1 -1 -1 -0 -0 0 0 0 0 0 -0 0
-1 -1 -1 -1 -0 -1 -1 -1 -1 -1 -1 -1 -1 -0 -0 -0 -0 -0 -0 -0 -0 -0 -1 -1 -0 -0 -1 -1 -1 -1 -1 -1 -1 -1 -1 -1 -0 -0 -0 -0 -0 -0 -0
-1 -1 -1 -1 -1 -1 -1 -1 -1 -1 -1 -1 -1 -1 -1 -1 -1 -1 -1 -0 -1 -1 -1 -1 -1 -1 -1 -1 -1 -1 -1 -2 -1 -1 -1 -1 -1 -1 -1 -1 -1 -1 -1
-2 -1 -1 -1 -2 -2 -2 -2 -2 -2 -2 -2 -2 -2 -2 -2 -1 -1 -1 -1 -1 -1 -1 -1 -1 -1 -1 -1 -2 -2 -2 -2 -2 -2 -2 -2 -2 -1 -1 -1 -1 -1 -1
-2 -2 -2 -2 -2 -2 -2 -2 -2 -3 -3 -2 -2 -2 -2 -2 -2 -2 -2 -2 -2 -2 -1 -1 -2 -2 -2 -2 -2 -2 -2 -2 -2 -2 -2 -2 -2 -2 -2 -2 -1 -2 -2
Wind_Speed
2 2 2 2 2 3 3 3 3 3 3 3 3 3 3 2 1 1 1 2 2 2 2 2 2 2 1 1 2 2 2 2 3 4 4 5 5 6 6 7 8 8 9
2 2 2 2 2 2 3 3 3 3 2 2 2 2 2 1 1 1 1 1 2 2 2 2 2 2 2 2 3 3 4 4 4 5 5 6 6 7 8 8 9 9 10
2 2 2 2 2 3 3 3 3 3 2 2 1 1 1 1 1 1 1 1 2 2 2 2 2 3 3 4 5 5 5 5 6 6 6 6 7 8 9 10 10 10 11
3 3 1 1 2 3 3 3 3 2 2 1 1 1 1 1 1 1 1 1 1 2 2 3 3 3 4 5 6 5 5 6 7 7 7 8 8 9 10 11 11 12 12
3 3 2 1 2 3 3 3 2 2 2 1 1 1 1 0 0 1 1 1 1 1 2 3 4 4 5 5 6 7 7 7 7 8 9 9 9 10 11 11 12 12 13
2 2 2 2 2 3 2 3 3 2 2 2 1 1 0 0 1 0 0 1 1 1 1 2 3 4 5 6 7 8 8 8 8 9 10 10 11 11 12 12 12 13 13
1 1 1 1 2 2 2 3 3 3 2 2 2 1 1 1 0 0 0 0 1 1 1 2 2 2 4 6 7 8 9 9 10 10 11 11 11 12 12 13 13 13 13
1 1 1 1 1 2 2 3 3 3 2 2 2 1 1 2 1 1 1 1 1 1 1 2 2 2 3 4 6 8 9 10 11 11 11 11 11 12 12 13 13 13 13
1 1 0 1 1 2 3 3 3 3 3 2 1 2 2 2 2 1 1 1 1 1 1 1 2 2 3 4 5 7 9 11 11 12 12 12 13 13 13 13 13 13 13
1 1 1 1 1 1 2 2 3 3 3 3 2 1 1 2 1 2 2 1 1 2 2 2 2 2 3 4 5 7 9 10 11 12 13 13 13 13 13 13 13 14 14
1 1 1 1 1 1 1 2 2 3 3 3 3 2 1 0 1 2 3 2 2 2 2 2 2 2 3 4 5 7 8 10 11 12 12 13 13 13 13 13 14 15 15
1 1 1 0 0 1 2 2 2 3 3 3 2 2 2 2 2 2 3 3 3 3 3 3 3 3 3 4 6 8 8 9 11 11 11 12 12 13 13 13 14 15 16
1 1 1 1 1 1 1 2 2 3 3 4 4 3 3 3 2 2 2 2 3 2 2 2 3 3 3 4 6 8 9 10 11 11 11 11 12 13 13 13 14 15 15
2 1 1 2 2 2 2 2 3 4 3 4 5 5 3 3 3 3 3 2 2 3 3 4 2 3 3 4 6 7 7 10 11 11 11 11 12 12 13 13 13 14 14
2 1 1 2 2 2 3 3 4 4 4 4 4 5 4 3 3 3 3 3 3 4 5 3 2 2 3 4 7 6 6 9 11 11 11 11 11 12 12 12 13 13 13
2 2 2 2 2 3 3 3 4 4 4 4 3 4 4 3 3 3 4 3 4 4 5 3 3 3 3 5 7 7 8 10 10 11 11 11 11 11 12 12 12 13 14
2 2 3 2 3 3 3 4 4 4 4 4 4 4 5 4 4 4 3 3 4 4 5 5 3 3 3 3 5 6 7 7 8 10 11 11 11 11 12 12 13 13 14
2 2 2 2 2 2 3 4 4 4 5 5 5 4 5 4 5 4 4 4 4 4 4 6 4 3 3 3 3 4 5 6 7 9 10 11 11 11 11 12 13 13 14
2 2 2 2 3 3 3 4 4 5 5 5 5 5 6 5 5 4 5 5 4 4 4 4 5 3 2 2 3 4 4 5 6 8 10 11 11 11 11 12 12 12 12
2 2 2 3 3 3 4 4 3 4 5 5 5 5 6 6 6 6 5 5 4 4 3 4 4 3 3 2 2 3 4 4 5 6 8 9 9 10 11 11 11 11 11
2 2 2 2 3 3 3 3 3 3 4 4 4 4 5 6 7 6 5 5 5 4 4 4 4 3 3 2 3 3 5 5 4 4 4 5 5 5 7 9 10 10 11
2 2 2 2 2 3 4 4 2 2 2 2 2 2 3 4 5 6 7 6 6 5 5 4 4 5 5 4 3 4 4 4 4 2 2 4 3 5 5 5 8 10 11
2 2 2 1 2 3 4 3 3 1 1 2 2 2 2 2 3 2 3 4 5 6 6 5 5 5 5 4 4 4 4 5 5 3 3 5 3 4 5 7 9 10 11
1 1 1 1 2 3 4 3 3 1 1 1 2 2 2 2 2 2 1 2 2 3 4 4 4 5 5 4 4 4 4 5 4 3 2 4 4 4 5 5 9 9 10
2 1 1 1 1 3 3 3 3 0 0 1 2 2 1 2 3 3 1 2 2 2 3 4 5 5 6 6 4 2 2 3 4 3 2 2 3 4 4 4 6 9 9
1 2 2 1 1 2 3 3 2 0 0 1 1 1 3 3 4 4 1 1 2 3 2 2 3 4 3 3 4 2 3 3 4 3 1 1 2 3 3 2 3 4 6
Wind_Direction
132 125 121 106 111 118 115 106 103 102 99 93 100 102 93 85 95 83 27 24 10 342 320 300 271 235 250 266 282 291 288 302 307 305 305 307 305 305 305 304 306 309 306
135 141 142 139 128 133 135 129 128 131 129 111 102 98 104 99 103 88 44 10 3 360 346 331 317 313 312 298 292 292 293 296 299 301 303 303 301 299 298 299 300 303 305
103 126 145 162 157 146 134 121 110 110 118 110 111 108 104 90 91 85 47 33 16 7 4 354 338 333 332 326 307 292 290 292 291 289 291 296 300 301 299 298 300 300 301
96 99 117 155 140 134 132 138 131 126 129 136 145 136 100 85 73 78 68 49 36 14 358 354 335 326 326 324 326 313 296 293 291 290 288 289 291 295 300 302 300 299 299
85 95 100 93 114 123 133 144 140 145 151 157 172 137 107 130 57 84 77 68 49 18 14 355 350 344 332 327 324 323 321 313 306 299 293 288 287 290 293 296 299 301 300
79 97 100 85 103 132 143 148 147 137 152 158 141 95 48 47 61 66 157 87 52 357 8 354 346 335 333 329 323 320 317 317 315 309 305 299 292 290 291 293 294 298 301
66 99 90 110 118 142 159 162 156 145 133 115 101 45 353 34 51 288 202 101 36 334 340 330 327 330 331 330 328 323 318 315 313 312 313 311 305 300 298 293 293 296 298
32 136 118 154 143 139 139 153 155 155 136 124 127 125 320 325 311 276 260 232 267 320 316 302 300 308 317 320 321 323 321 318 314 313 314 316 315 313 309 306 302 299 299
32 54 114 144 156 157 174 179 168 155 169 175 139 141 154 227 287 284 253 241 267 257 281 294 283 289 303 308 310 314 317 313 310 312 313 313 313 311 309 309 310 309 307
17 64 94 123 163 172 179 191 182 171 173 182 186 193 171 160 183 282 284 268 274 267 271 295 288 278 295 299 306 310 313 314 312 311 311 310 309 309 310 311 311 310 309
349 35 75 90 143 179 203 193 204 186 185 188 185 175 181 174 173 212 268 284 291 266 264 265 262 267 277 284 293 302 309 312 314 313 312 310 310 311 310 310 311 311 311
324 352 39 61 192 195 210 212 219 209 199 192 198 190 181 181 197 201 241 266 277 273 266 255 247 248 259 272 289 301 304 308 310 311 312 312 312 313 312 312 312 311 312
301 261 257 237 236 234 230 215 216 222 208 201 209 217 213 212 195 194 214 253 277 287 275 258 244 248 264 276 289 294 297 302 304 306 307 308 310 311 312 312 312 312 312
264 271 264 257 255 250 242 227 225 226 217 217 220 217 220 220 208 201 196 208 276 278 264 262 256 247 276 282 286 291 294 300 301 303 304 303 304 307 308 310 309 310 310
265 268 262 253 256 249 244 234 230 225 216 223 227 218 218 223 218 216 207 198 206 254 264 252 252 266 291 291 290 292 292 298 300 298 298 298 300 304 305 307 308 308 309
258 254 249 246 251 250 247 242 235 227 220 228 228 223 223 222 222 217 213 213 213 227 256 256 251 271 289 292 294 298 292 297 299 296 294 294 297 300 302 304 306 307 307
264 259 258 259 256 254 246 243 236 225 222 228 226 224 230 220 218 220 216 213 219 221 252 272 261 272 263 275 296 297 295 293 293 295 298 298 297 298 300 302 303 303 305
280 268 268 267 265 265 254 244 237 227 221 227 229 224 235 230 220 219 219 221 225 225 238 270 278 267 262 264 274 283 295 296 292 296 299 299 298 299 300 301 301 301 303
295 291 274 266 269 266 263 249 233 230 226 228 227 225 230 225 225 225 224 226 230 239 237 255 272 268 268 274 287 287 285 289 296 299 299 297 295 297 299 301 303 304 305
281 282 276 275 276 272 264 251 241 234 229 231 229 228 231 227 226 227 230 226 225 233 239 250 267 276 273 272 272 282 295 291 293 301 297 295 294 297 300 302 304 306 307
281 278 275 279 282 273 261 253 244 238 231 233 236 237 239 239 238 239 240 230 222 228 235 250 264 276 272 272 269 270 285 297 288 280 288 291 295 296 300 300 301 303 305
287 280 266 265 278 283 290 286 278 245 237 235 243 255 253 242 250 258 260 259 247 234 236 243 259 264 268 261 265 273 282 294 294 284 289 291 289 284 291 293 298 303 307
294 293 276 268 279 282 297 297 307 302 251 238 239 256 283 283 285 249 268 283 279 271 256 248 253 260 262 253 256 268 269 275 274 283 296 290 291 287 298 302 306 309 312
313 305 299 297 287 290 309 312 323 332 286 278 263 255 255 270 275 274 264 283 278 278 269 258 246 255 258 252 245 249 259 275 272 268 263 281 293 290 299 305 308 312 316
341 321 303 307 296 302 312 321 338 12 358 327 314 304 296 271 286 307 305 276 285 290 294 287 285 284 283 278 271 270 267 280 285 281 248 266 287 295 294 294 311 319 322
340 347 350 337 296 296 319 340 347 97 10 343 345 337 313 303 304 308 278 254 276 287 300 319 320 315 314 310 300 274 252 264 283 286 259 270 292 316 311 294 307 326 326
Height
1504 1505 1506 1508 1509 1510 1511 1513 1514 1515 1517 1518 1519 1520 1521 1522 1523 1524 1524 1525 1526 1526 1526 1527 1527 1527 1527 1527 1527 1526 1526 1526 1525 1525 1525 1524 1524 1523 1522 1522 1521 1520 1520
1501 1503 1504 1505 1507 1508 1509 1510 1512 1513 1514 1515 1517 1518 1519 1520 1521 1521 1522 1523 1523 1524 1524 1525 1525 1525 1525 1525 1525 1524 1524 1523 1523 1523 1522 1522 1521 1520 1520 1519 1518 1518 1517
1499 1500 1501 1502 1504 1506 1507 1508 1509 1510 1512 1513 1514 1515 1516 1517 1518 1519 1520 1520 1521 1521 1522 1522 1522 1522 1522 1522 1522 1522 1521 1521 1521 1520 1520 1519 1518 1518 1517 1516 1516 1514 1513
1496 1497 1499 1500 1501 1503 1504 1505 1506 1508 1509 1510 1511 1512 1513 1514 1515 1516 1517 1517 1518 1518 1519 1519 1520 1520 1520 1519 1520 1519 1519 1518 1518 1518 1517 1516 1516 1515 1514 1513 1512 1511 1510
1493 1494 1496 1497 1499 1500 1501 1502 1503 1505 1506 1507 1508 1509 1510 1512 1512 1513 1514 1514 1515 1515 1516 1516 1516 1516 1517 1516 1516 1516 1516 1515 1515 1515 1514 1513 1513 1512 1511 1510 1509 1507 1506
1490 1492 1493 1494 1495 1497 1498 1499 1501 1502 1504 1505 1506 1507 1508 1509 1509 1510 1511 1512 1512 1512 1513 1513 1513 1513 1513 1513 1513 1513 1512 1512 1512 1511 1511 1510 1509 1508 1507 1506 1505 1504 1502
1487 1488 1489 1491 1492 1493 1495 1496 1497 1499 1500 1502 1503 1504 1505 1505 1506 1507 1508 1508 1509 1509 1509 1510 1510 1510 1510 1510 1509 1509 1509 1508 1508 1507 1507 1506 1505 1504 1503 1502 1501 1499 1498
1483 1484 1486 1487 1488 1490 1491 1493 1494 1495 1497 1498 1500 1500 1501 1503 1503 1504 1504 1505 1505 1506 1506 1506 1506 1506 1506 1506 1505 1505 1504 1504 1504 1503 1502 1501 1501 1499 1498 1497 1496 1495 1493
1480 1481 1482 1484 1485 1486 1488 1489 1490 1491 1493 1495 1497 1498 1498 1498 1499 1500 1500 1501 1502 1502 1502 1503 1502 1502 1502 1502 1501 1501 1500 1500 1499 1498 1498 1497 1496 1495 1494 1492 1491 1490 1489
1477 1478 1479 1480 1481 1483 1484 1486 1487 1488 1490 1491 1493 1495 1496 1496 1497 1496 1496 1497 1498 1498 1499 1499 1499 1498 1498 1497 1497 1497 1496 1495 1494 1493 1493 1492 1491 1490 1489 1487 1486 1485 1484
1473 1474 1476 1477 1478 1479 1481 1482 1483 1485 1486 1487 1489 1490 1491 1492 1493 1493 1492 1492 1493 1494 1494 1495 1495 1494 1494 1493 1493 1492 1491 1490 1489 1488 1488 1487 1485 1484 1483 1482 1481 1480 1479
1470 1471 1472 1473 1474 1476 1477 1478 1480 1481 1482 1484 1485 1486 1487 1488 1489 1490 1489 1488 1488 1489 1489 1490 1490 1490 1489 1489 1488 1487 1486 1486 1484 1483 1482 1481 1480 1479 1478 1477 1476 1474 1473
1467 1467 1468 1470 1471 1472 1473 1474 1476 1477 1478 1479 1481 1482 1483 1484 1486 1486 1486 1485 1484 1484 1484 1485 1485 1485 1485 1484 1483 1483 1481 1481 1479 1478 1477 1476 1475 1473 1472 1471 1470 1469 1467
1463 1464 1465 1466 1467 1468 1470 1471 1471 1473 1474 1476 1477 1478 1479 1480 1481 1482 1482 1482 1480 1479 1479 1479 1480 1480 1480 1479 1478 1478 1477 1476 1475 1473 1472 1471 1470 1468 1467 1466 1465 1463 1462
1460 1461 1462 1463 1464 1465 1466 1466 1467 1469 1470 1471 1473 1474 1474 1475 1476 1477 1478 1478 1478 1476 1474 1474 1475 1475 1475 1475 1474 1473 1472 1471 1469 1468 1467 1466 1465 1463 1462 1461 1459 1458 1456
1457 1458 1459 1459 1460 1461 1462 1462 1463 1464 1465 1467 1467 1468 1469 1470 1471 1472 1473 1473 1473 1473 1470 1469 1470 1470 1470 1470 1469 1468 1467 1466 1464 1463 1462 1461 1460 1458 1457 1456 1454 1453 1451
1454 1454 1455 1455 1456 1457 1458 1458 1459 1459 1460 1461 1462 1463 1464 1465 1466 1467 1468 1468 1468 1468 1466 1465 1465 1465 1465 1464 1463 1463 1462 1461 1459 1458 1457 1456 1455 1453 1452 1451 1449 1448 1446
1451 1451 1451 1452 1452 1453 1453 1454 1454 1455 1455 1456 1457 1458 1459 1460 1461 1462 1463 1463 1463 1463 1463 1460 1460 1460 1460 1460 1459 1458 1457 1456 1454 1453 1452 1451 1449 1448 1447 1446 1444 1442 1440
1447 1448 1448 1448 1449 1449 1449 1449 1450 1450 1451 1452 1453 1453 1454 1455 1456 1457 1458 1458 1458 1458 1458 1456 1455 1455 1455 1455 1454 1453 1452 1451 1449 1448 1447 1445 1444 1443 1442 1441 1439 1437 1435
1444 1444 1444 1444 1445 1445 1445 1445 1445 1445 1446 1447 1448 1449 1449 1450 1451 1452 1452 1453 1453 1453 1453 1452 1451 1450 1450 1450 1449 1448 1446 1445 1444 1443 1442 1441 1439 1438 1437 1436 1434 1432 1431
1441 1441 1441 1441 1441 1441 1442 1441 1441 1441 1442 1442 1443 1444 1445 1446 1446 1447 1447 1447 1448 1448 1447 1447 1446 1445 1445 1445 1445 1444 1442 1440 1439 1438 1437 1436 1434 1433 1432 1431 1429 1427 1426
1438 1438 1437 1437 1437 1438 1438 1438 1438 1438 1438 1438 1439 1439 1440 1441 1442 1442 1442 1443 1443 1443 1443 1442 1442 1441 1441 1441 1441 1439 1438 1436 1434 1434 1432 1430 1430 1428 1427 1426 1425 1423 1421
1435 1434 1434 1434 1434 1435 1435 1435 1435 1435 1434 1435 1435 1435 1436 1436 1437 1437 1437 1437 1438 1438 1439 1439 1438 1437 1437 1437 1436 1435 1434 1432 1431 1430 1429 1426 1425 1424 1423 1422 1420 1418 1417
1432 1432 1432 1432 1432 1432 1432 1431 1431 1431 1431 1431 1431 1432 1432 1432 1432 1432 1432 1432 1432 1433 1434 1434 1433 1433 1433 1432 1432 1431 1430 1428 1427 1426 1425 1422 1421 1420 1419 1418 1416 1414 1413
1430 1430 1429 1429 1429 1429 1429 1429 1428 1428 1428 1428 1428 1428 1428 1428 1428 1428 1428 1428 1428 1429 1429 1429 1429 1429 1428 1428 1428 1427 1426 1424 1422 1421 1421 1419 1417 1415 1414 1413 1412 1411 1409
1428 1428 1428 1428 1427 1427 1426 1426 1426 1425 1425 1425 1425 1425 1426 1426 1426 1426 1425 1425 1425 1425 1425 1424 1425 1424 1424 1424 1424 1423 1422 1421 1419 1418 1417 1416 1414 1413 1410 1409 1408 1407 1405